Regional Weather Roundup
Issued by NWS State College, PA

Home | Current Version | Previous Version | Text Only | Print | Product List | Glossary On
Versions: 1 2 3 4 5 6 7 8 9 10 11 12 13 14 15 16 17 18 19 20 21 22 23 24 25 26 27 28 29 30 31 32 33 34 35 36 37 38 39 40 41 42 43 44 45 46 47 48 49 50
000
ASUS41 KCTP 202010
RWRCTP

REGIONAL WEATHER ROUNDUP
NATIONAL WEATHER SERVICE STATE COLLEGE PA
300 PM EST SAT DEC 20 2014

Note: "fair" indicates few or no clouds below 12,000 feet with no
significant weather and/or obstructions to visibility.

* = STATION THAT DOES NOT REPORT PRECIPITATION /E.G. RAIN...SNOW...ETC/
    THUNDER OR FOG.

PAZ002>004-007>009-013>016-020>023-029>032-202100-
WESTERN PENNSYLVANIA

CITY           SKY/WX    TMP DP  RH WIND       PRES   REMARKS
ERIE           CLOUDY    31  20  63 CALM      30.25F
MEADVILLE      CLOUDY    28  20  71 CALM      30.20F
FRANKLIN*      CLOUDY    28  19  69 W5        30.21S
NEW CASTLE       N/A     30  20  66 CALM      30.25S
BEAVER COUNTY  CLOUDY    30  21  69 N5        30.22S
BUTLER*        CLOUDY    28  19  69 CALM      30.23S
PITTSBURGH INT MOSUNNY   31  20  63 W5        30.22S
PITTSBURGH     SUNNY     32  16  51 NW6       30.20S
INDIANA*       CLOUDY    28  21  74 NW3       30.24R
LATROBE        SUNNY     32  19  59 CALM      30.23F
WASHINGTON CO* NOT AVBL
$$

PAZ004>006-010>012-017>019-024>028-033>037-041-042-045-046-049>053-202100-
CENTRAL PENNSYLVANIA

CITY           SKY/WX    TMP DP  RH WIND       PRES   REMARKS
BRADFORD       CLOUDY    24  19  81 NW3       30.15S
DUBOIS         CLOUDY    27  20  75 CALM      30.16S
CLEARFIELD     CLOUDY    28  19  69 S6        30.19R
JOHNSTOWN      PTSUNNY   28  18  66 W6        30.13R
ALTOONA        MOSUNNY   30  21  69 CALM      30.18R
STATE COLLEGE  CLOUDY    28  21  74 CALM      30.20F
WILLIAMSPORT   CLOUDY    33  20  58 SW3       30.23S
SELINSGROVE    CLOUDY    33  20  58 CALM      30.24F
FT INDIANTOWN  CLOUDY    33  20  58 VRB1      30.24S
CAPITAL CITY   CLOUDY    34  20  56 CALM      30.25F
HARRISBURG     PTSUNNY   34  21  59 W3        30.24F
YORK           PTSUNNY   34  21  59 W3        30.24S
$$

PAZ038>040-043-044-047-048-054-055-060>062-067>071-202100-
EASTERN PENNSYLVANIA

CITY           SKY/WX    TMP DP  RH WIND       PRES   REMARKS
SCRANTON       CLOUDY    31  20  63 NW5       30.21R
MOUNT POCONO   CLOUDY    26  18  71 N3        30.15R
ALLENTOWN      CLOUDY    35  21  56 CALM      30.25S
QUAKERTOWN*    CLOUDY    32  23  69 CALM      30.24S
READING        CLOUDY    34  20  56 CALM      30.24F
LANCASTER      CLOUDY    33  20  58 CALM      30.24S
COATESVILLE    CLOUDY    34  23  64 N5        30.23F
POTTSTOWN      CLOUDY    33  21  61 N3        30.26S
BLUE BELL      CLOUDY    34  23  64 CALM      30.25S
DOYLESTOWN     CLOUDY    32  21  64 NE3       30.24S
WILLOW GROVE   NOT AVBL
NORTH PHILA    CLOUDY    35  20  54 CALM      30.28S
PHILADELPHIA   CLOUDY    35  21  56 N3        30.27F
$$



USA.gov is the U.S. government's official web portal to all federal, state and local government web resources and services.